Location: Carlingford
(46.7848°N, 67.7474°W)
Time: 13:57:21
(UTC+00:00)

N. Korean satellite - Pass Details

Date: 07 December 2022
Orbit: 407 x 441 km, 97.3° (Epoch: 05 February)

Event Time Altitude Azimuth Distance (km) Brightness Sun altitude
Rises 09:14:24 0° 23° (NNE) 2,512 10.4 -27.7°
Reaches altitude 10° 09:16:42 10° 36° (NE) 1,623 9.6 -27.3°
Maximum altitude 09:19:41 26° 95° (E) 938 8.6 -26.8°
Drops below altitude 10° 09:22:36 10° 154° (SSE) 1,586 9.5 -26.3°
Sets 09:24:50 0° 168° (SSE) 2,441 10.4 -25.9°
